| time (UTC) | temp F | wind direction | speed MPH | gust MPH | rain 1hr in | rain 24hr in | rain mn in | humidity % | barometer mb |
| 20260905095403 | 51 | 293 | 5.0 | 18.0 | 0.00 | 0.77 | 0.77 | 88 | 1007.7 |
| 20260905094504 | 51 | 290 | 5.0 | 18.0 | 0.00 | 0.77 | 0.77 | 89 | 1007.5 |
| 20260905093625 | 50 | 297 | 4.0 | 9.0 | 0.00 | 0.77 | 0.77 | 90 | 1007.4 |
| 20260905092703 | 50 | 302 | 4.0 | 12.0 | 0.00 | 0.77 | 0.77 | 90 | 1007.1 |
| 20260905091803 | 50 | 290 | 4.0 | 15.0 | 0.01 | 0.77 | 0.77 | 90 | 1006.8 |
| 20260905090904 | 50 | 284 | 5.0 | 16.0 | 0.01 | 0.77 | 0.77 | 90 | 1006.6 |
| 20260905090004 | 50 | 287 | 5.0 | 12.0 | 0.02 | 0.77 | 0.77 | 91 | 1006.3 |
| 20260905085404 | 51 | 285 | 5.0 | 11.0 | 0.02 | 0.77 | 0.77 | 91 | 1006.2 |
| 20260905084503 | 51 | 306 | 5.0 | 16.0 | 0.03 | 0.77 | 0.77 | 91 | 1006.1 |
| 20260905083603 | 51 | 306 | 4.0 | 11.0 | 0.03 | 0.77 | 0.77 | 91 | 1006.0 |
| 20260905082724 | 51 | 299 | 3.0 | 8.0 | 0.03 | 0.77 | 0.77 | 90 | 1006.0 |
| 20260905081804 | 51 | 298 | 4.0 | 13.0 | 0.03 | 0.76 | 0.76 | 90 | 1005.7 |
| 20260905080924 | 52 | 293 | 5.0 | 15.0 | 0.10 | 0.76 | 0.76 | 90 | 1005.7 |
| 20260905080004 | 51 | 293 | 6.0 | 12.0 | 0.21 | 0.75 | 0.75 | 89 | 1005.5 |
| 20260905075403 | 51 | 288 | 6.0 | 22.0 | 0.21 | 0.75 | 0.75 | 89 | 1005.3 |
| 20260905074504 | 51 | 289 | 5.0 | 12.0 | 0.20 | 0.74 | 0.74 | 88 | 1005.0 |
| 20260905073603 | 52 | 272 | 6.0 | 14.0 | 0.20 | 0.74 | 0.74 | 87 | 1004.9 |
| 20260905072704 | 52 | 265 | 6.0 | 17.0 | 0.20 | 0.74 | 0.74 | 86 | 1004.8 |
| 20260905071803 | 54 | 271 | 6.0 | 19.0 | 0.19 | 0.73 | 0.73 | 82 | 1004.9 |
| 20260905070903 | 57 | 276 | 5.0 | 20.0 | 0.12 | 0.66 | 0.67 | 74 | 1005.0 |
| 20260905070004 | 60 | 254 | 4.0 | 12.0 | 0.00 | 0.54 | 0.54 | 62 | 1003.9 |
| 20260905065403 | 60 | 193 | 5.0 | 12.0 | 0.00 | 0.54 | 0.54 | 62 | 1003.4 |
| 20260905064503 | 60 | 182 | 6.0 | 17.0 | 0.00 | 0.54 | 0.54 | 62 | 1003.6 |
| 20260905063624 | 60 | 292 | 5.0 | 16.0 | 0.00 | 0.54 | 0.54 | 62 | 1003.7 |
| 20260905062704 | 61 | 253 | 4.0 | 12.0 | 0.00 | 0.54 | 0.54 | 62 | 1003.6 |
| 20260905061803 | 61 | 288 | 6.0 | 17.0 | 0.00 | 0.54 | 0.54 | 60 | 1003.8 |
| 20260905060924 | 61 | 236 | 5.0 | 18.0 | 0.00 | 0.54 | 0.54 | 58 | 1003.8 |
| 20260905060004 | 62 | 159 | 5.0 | 12.0 | 0.00 | 0.54 | 0.54 | 56 | 1003.7 |
| 20260905055403 | 62 | 159 | 6.0 | 16.0 | 0.00 | 0.54 | 0.54 | 54 | 1003.3 |
| 20260905054503 | 62 | 160 | 7.0 | 16.0 | 0.00 | 0.54 | 0.54 | 53 | 1003.1 |
| 20260905053603 | 63 | 209 | 6.0 | 16.0 | 0.00 | 0.54 | 0.54 | 51 | 1003.2 |
| 20260905052703 | 63 | 168 | 7.0 | 19.0 | 0.00 | 0.54 | 0.54 | 52 | 1003.2 |
| 20260905051803 | 64 | 160 | 7.0 | 19.0 | 0.00 | 0.54 | 0.54 | 52 | 1003.3 |
| 20260905050924 | 64 | 272 | 8.0 | 16.0 | 0.00 | 0.54 | 0.54 | 50 | 1003.2 |
| 20260905050004 | 64 | 253 | 8.0 | 19.0 | 0.00 | 0.54 | 0.54 | 51 | 1003.3 |
| 20260905045403 | 64 | 265 | 7.0 | 22.0 | 0.00 | 0.54 | 0.54 | 53 | 1003.1 |
| 20260905044503 | 64 | 267 | 8.0 | 15.0 | 0.00 | 0.54 | 0.54 | 54 | 1003.0 |
| 20260905043603 | 64 | 276 | 7.0 | 21.0 | 0.00 | 0.54 | 0.54 | 53 | 1002.8 |
| 20260905042703 | 63 | 225 | 7.0 | 15.0 | 0.00 | 0.54 | 0.54 | 58 | 1002.9 |
| 20260905041824 | 64 | 244 | 7.0 | 20.0 | 0.00 | 0.54 | 0.54 | 59 | 1002.8 |
| 20260905040903 | 64 | 284 | 6.0 | 17.0 | 0.00 | 0.54 | 0.54 | 61 | 1002.8 |
| 20260905040003 | 64 | 269 | 7.0 | 16.0 | 0.00 | 0.54 | 0.54 | 62 | 1002.9 |
| 20260905035403 | 64 | 245 | 6.0 | 16.0 | 0.00 | 0.54 | 0.54 | 64 | 1003.0 |
| 20260905034503 | 63 | 189 | 6.0 | 15.0 | 0.02 | 0.54 | 0.54 | 63 | 1002.9 |
| 20260905033624 | 62 | 157 | 6.0 | 15.0 | 0.04 | 0.54 | 0.54 | 67 | 1002.9 |
| 20260905032703 | 60 | 157 | 5.0 | 13.0 | 0.04 | 0.54 | 0.54 | 71 | 1003.0 |
| 20260905031824 | 58 | 157 | 6.0 | 12.0 | 0.04 | 0.54 | 0.54 | 72 | 1002.9 |
| 20260905030903 | 57 | 157 | 7.0 | 16.0 | 0.04 | 0.54 | 0.54 | 76 | 1003.1 |
| 20260905030003 | 56 | 157 | 7.0 | 20.0 | 0.04 | 0.54 | 0.54 | 75 | 1003.3 |
| 20260905025427 | 56 | 157 | 7.0 | 19.0 | 0.04 | 0.54 | 0.54 | 72 | 1003.3 |
| 20260905024503 | 61 | 157 | 7.0 | 18.0 | 0.02 | 0.52 | 0.52 | 66 | 1003.4 |
| 20260905023603 | 64 | 157 | 10.0 | 21.0 | 0.00 | 0.50 | 0.50 | 63 | 1002.9 |
| 20260905022703 | 64 | 157 | 11.0 | 29.0 | 0.00 | 0.50 | 0.50 | 62 | 1002.9 |
| 20260905021803 | 64 | 157 | 11.0 | 29.0 | 0.00 | 0.50 | 0.50 | 63 | 1002.9 |
| 20260905020924 | 64 | 157 | 11.0 | 27.0 | 0.00 | 0.50 | 0.50 | 67 | 1003.0 |
| 20260905020003 | 63 | 157 | 11.0 | 18.0 | 0.00 | 0.50 | 0.50 | 74 | 1003.4 |
| 20260905015403 | 62 | 157 | 11.0 | 20.0 | 0.00 | 0.50 | 0.50 | 74 | 1003.5 |
| 20260905014503 | 62 | 157 | 10.0 | 22.0 | 0.00 | 0.50 | 0.50 | 74 | 1003.6 |
| 20260905013603 | 62 | 157 | 10.0 | 22.0 | 0.00 | 0.50 | 0.50 | 76 | 1003.5 |
| 20260905012703 | 61 | 157 | 8.0 | 24.0 | 0.00 | 0.50 | 0.50 | 77 | 1003.4 |
| 20260905011803 | 60 | 157 | 10.0 | 21.0 | 0.00 | 0.50 | 0.50 | 79 | 1003.7 |
| 20260905010924 | 60 | 157 | 10.0 | 25.0 | 0.00 | 0.50 | 0.50 | 79 | 1003.7 |
| 20260905010003 | 60 | 157 | 10.0 | 22.0 | 0.00 | 0.50 | 0.50 | 79 | 1003.8 |
| 20260905005403 | 60 | 157 | 9.0 | 22.0 | 0.00 | 0.50 | 0.50 | 80 | 1003.8 |
| 20260905004503 | 60 | 157 | 10.0 | 19.0 | 0.00 | 0.50 | 0.50 | 80 | 1003.9 |
| 20260905003603 | 60 | 157 | 12.0 | 23.0 | 0.00 | 0.50 | 0.50 | 80 | 1003.9 |
| 20260905002703 | 59 | 157 | 10.0 | 26.0 | 0.00 | 0.50 | 0.50 | 80 | 1003.9 |
| 20260905001824 | 59 | 157 | 9.0 | 20.0 | 0.00 | 0.50 | 0.50 | 81 | 1003.8 |
| 20260905000903 | 58 | 157 | 7.0 | 25.0 | 0.00 | 0.50 | 0.50 | 83 | 1004.1 |
| 20260905000003 | 58 | 157 | 7.0 | 19.0 | 0.00 | 0.50 | 0.50 | 85 | 1004.1 |
| 20260904235424 | 58 | 157 | 8.0 | 19.0 | 0.00 | 0.50 | 0.50 | 85 | 1004.3 |
| 20260904234503 | 57 | 157 | 8.0 | 17.0 | 0.00 | 0.50 | 0.50 | 86 | 1004.3 |
| 20260904233624 | 57 | 157 | 8.0 | 17.0 | 0.00 | 0.50 | 0.50 | 87 | 1004.3 |
| 20260904232724 | 57 | 157 | 7.0 | 17.0 | 0.00 | 0.50 | 0.50 | 88 | 1004.0 |
| 20260904231803 | 56 | 157 | 8.0 | 14.0 | 0.00 | 0.50 | 0.50 | 89 | 1004.3 |
| 20260904230903 | 56 | 157 | 8.0 | 18.0 | 0.00 | 0.50 | 0.50 | 90 | 1004.3 |
| 20260904230003 | 56 | 157 | 8.0 | 15.0 | 0.00 | 0.50 | 0.50 | 91 | 1004.4 |
| 20260904225403 | 56 | 157 | 8.0 | 17.0 | 0.00 | 0.50 | 0.50 | 91 | 1004.7 |
| 20260904224503 | 55 | 157 | 7.0 | 15.0 | 0.01 | 0.50 | 0.50 | 91 | 1004.4 |
| 20260904223603 | 55 | 157 | 7.0 | 18.0 | 0.02 | 0.50 | 0.50 | 92 | 1004.5 |
| 20260904222703 | 55 | 157 | 8.0 | 14.0 | 0.03 | 0.50 | 0.50 | 92 | 1004.8 |
| 20260904221803 | 55 | 157 | 8.0 | 17.0 | 0.04 | 0.50 | 0.50 | 92 | 1005.1 |
| 20260904220924 | 55 | 157 | 8.0 | 17.0 | 0.05 | 0.50 | 0.50 | 92 | 1005.5 |
| 20260904220003 | 55 | 157 | 7.0 | 15.0 | 0.06 | 0.50 | 0.50 | 92 | 1005.5 |
| 20260904215403 | 55 | 157 | 8.0 | 18.0 | 0.07 | 0.50 | 0.50 | 91 | 1004.7 |
| 20260904214503 | 55 | 157 | 7.0 | 17.0 | 0.08 | 0.49 | 0.49 | 91 | 1004.8 |
| 20260904213603 | 55 | 157 | 7.0 | 15.0 | 0.09 | 0.48 | 0.49 | 91 | 1004.9 |
| 20260904212703 | 55 | 157 | 6.0 | 15.0 | 0.08 | 0.47 | 0.47 | 91 | 1005.4 |
| 20260904211803 | 55 | 157 | 5.0 | 13.0 | 0.08 | 0.46 | 0.46 | 90 | 1005.8 |
| 20260904210903 | 55 | 157 | 6.0 | 12.0 | 0.07 | 0.45 | 0.45 | 90 | 1005.9 |
| 20260904210024 | 56 | 157 | 6.0 | 19.0 | 0.06 | 0.44 | 0.44 | 90 | 1006.0 |
| 20260904205403 | 56 | 157 | 6.0 | 16.0 | 0.05 | 0.43 | 0.43 | 90 | 1006.1 |
| 20260904204503 | 56 | 157 | 6.0 | 13.0 | 0.03 | 0.41 | 0.41 | 89 | 1006.3 |
| 20260904203603 | 56 | 157 | 6.0 | 18.0 | 0.01 | 0.39 | 0.39 | 89 | 1006.0 |
| 20260904202724 | 56 | 157 | 7.0 | 13.0 | 0.02 | 0.39 | 0.39 | 90 | 1005.9 |
| 20260904201824 | 56 | 157 | 7.0 | 14.0 | 0.03 | 0.38 | 0.38 | 90 | 1006.0 |
| 20260904200903 | 56 | 157 | 7.0 | 20.0 | 0.05 | 0.38 | 0.38 | 90 | 1005.6 |
| 20260904200003 | 56 | 157 | 6.0 | 14.0 | 0.06 | 0.38 | 0.38 | 90 | 1005.8 |
| 20260904195403 | 56 | 157 | 6.0 | 17.0 | 0.06 | 0.38 | 0.38 | 90 | 1005.8 |
| 20260904194503 | 56 | 157 | 6.0 | 17.0 | 0.06 | 0.38 | 0.38 | 90 | 1006.0 |
| 20260904193624 | 56 | 157 | 6.0 | 14.0 | 0.08 | 0.38 | 0.38 | 90 | 1006.5 |
| 20260904192703 | 56 | 157 | 8.0 | 14.0 | 0.13 | 0.37 | 0.37 | 89 | 1006.6 |
| 20260904191803 | 56 | 157 | 8.0 | 16.0 | 0.13 | 0.35 | 0.35 | 89 | 1006.5 |
| 20260904190903 | 56 | 157 | 8.0 | 16.0 | 0.11 | 0.33 | 0.33 | 89 | 1006.6 |
| 20260904190003 | 56 | 157 | 8.0 | 25.0 | 0.10 | 0.32 | 0.32 | 89 | 1006.7 |
| 20260904185403 | 56 | 157 | 9.0 | 18.0 | 0.10 | 0.32 | 0.32 | 89 | 1006.7 |
| 20260904184503 | 56 | 157 | 12.0 | 24.0 | 0.10 | 0.32 | 0.32 | 89 | 1007.1 |
| 20260904183603 | 56 | 157 | 11.0 | 24.0 | 0.08 | 0.31 | 0.31 | 88 | 1006.8 |
| 20260904182703 | 57 | 157 | 12.0 | 23.0 | 0.02 | 0.25 | 0.25 | 87 | 1006.8 |
| 20260904181824 | 57 | 157 | 12.0 | 31.0 | 0.01 | 0.23 | 0.23 | 88 | 1005.9 |
| 20260904180903 | 56 | 157 | 12.0 | 24.0 | 0.01 | 0.23 | 0.23 | 89 | 1005.6 |
| 20260904180002 | 56 | 157 | 11.0 | 24.0 | 0.01 | 0.23 | 0.23 | 89 | 1006.0 |
| 20260904175403 | 56 | 157 | 12.0 | 27.0 | 0.01 | 0.23 | 0.23 | 89 | 1006.1 |
| 20260904174503 | 56 | 157 | 10.0 | 27.0 | 0.02 | 0.23 | 0.23 | 90 | 1006.2 |
| 20260904173602 | 56 | 157 | 11.0 | 24.0 | 0.03 | 0.23 | 0.23 | 90 | 1006.6 |
| 20260904172702 | 56 | 157 | 11.0 | 23.0 | 0.06 | 0.23 | 0.23 | 90 | 1006.6 |
| 20260904171802 | 56 | 157 | 13.0 | 29.0 | 0.07 | 0.22 | 0.22 | 90 | 1006.9 |
| 20260904170903 | 56 | 157 | 14.0 | 30.0 | 0.08 | 0.22 | 0.22 | 90 | 1007.1 |
| 20260904170003 | 56 | 157 | 12.0 | 29.0 | 0.10 | 0.22 | 0.22 | 90 | 1007.2 |
| 20260904165402 | 56 | 157 | 11.0 | 25.0 | 0.11 | 0.22 | 0.22 | 90 | 1007.7 |
| 20260904164524 | 55 | 157 | 12.0 | 23.0 | 0.11 | 0.21 | 0.21 | 90 | 1007.8 |
| 20260904163603 | 56 | 157 | 13.0 | 23.0 | 0.10 | 0.20 | 0.20 | 90 | 1008.2 |
| 20260904162702 | 56 | 157 | 12.0 | 25.0 | 0.08 | 0.17 | 0.17 | 90 | 1008.6 |
| 20260904161823 | 56 | 157 | 11.0 | 23.0 | 0.07 | 0.15 | 0.15 | 89 | 1008.9 |
| 20260904160903 | 56 | 157 | 11.0 | 24.0 | 0.07 | 0.14 | 0.14 | 89 | 1008.7 |
| 20260904160003 | 56 | 157 | 10.0 | 29.0 | 0.05 | 0.12 | 0.12 | 89 | 1008.9 |
| 20260904155403 | 56 | 157 | 10.0 | 23.0 | 0.04 | 0.11 | 0.11 | 89 | 1008.9 |
| 20260904154502 | 56 | 157 | 11.0 | 24.0 | 0.03 | 0.10 | 0.10 | 89 | 1009.0 |
| 20260904153602 | 56 | 157 | 11.0 | 26.0 | 0.05 | 0.10 | 0.10 | 89 | 1009.4 |
| 20260904152703 | 56 | 157 | 12.0 | 26.0 | 0.05 | 0.09 | 0.09 | 88 | 1009.6 |
| 20260904151803 | 56 | 157 | 11.0 | 24.0 | 0.06 | 0.08 | 0.08 | 88 | 1009.5 |
| 20260904150903 | 56 | 157 | 10.0 | 24.0 | 0.06 | 0.07 | 0.07 | 88 | 1009.4 |
| 20260904150003 | 56 | 157 | 10.0 | 20.0 | 0.07 | 0.07 | 0.07 | 88 | 1010.0 |
| 20260904145402 | 56 | 157 | 10.0 | 24.0 | 0.07 | 0.07 | 0.07 | 88 | 1010.0 |
| 20260904144503 | 56 | 157 | 9.0 | 21.0 | 0.07 | 0.07 | 0.07 | 88 | 1010.0 |
| 20260904143603 | 56 | 157 | 9.0 | 17.0 | 0.05 | 0.05 | 0.05 | 87 | 1010.2 |
| 20260904142703 | 57 | 157 | 9.0 | 18.0 | 0.04 | 0.04 | 0.04 | 85 | 1010.5 |
| 20260904141802 | 57 | 157 | 8.0 | 25.0 | 0.02 | 0.02 | 0.02 | 84 | 1010.6 |
| 20260904140902 | 58 | 157 | 8.0 | 18.0 | 0.01 | 0.01 | 0.01 | 83 | 1010.7 |
| 20260904140004 | 58 | 157 | 10.0 | 22.0 | 0.00 | 0.00 | 0.00 | 81 | 1010.9 |
| 20260904135402 | 58 | 157 | 11.0 | 22.0 | 0.00 | 0.00 | 0.00 | 81 | 1010.7 |
| 20260904134503 | 58 | 157 | 11.0 | 22.0 | 0.00 | 0.00 | 0.00 | 81 | 1010.4 |
| 20260904133624 | 58 | 157 | 11.0 | 21.0 | 0.00 | 0.00 | 0.00 | 82 | 1010.5 |
| 20260904132724 | 57 | 157 | 9.0 | 21.0 | 0.00 | 0.00 | 0.00 | 84 | 1010.5 |
| 20260904131823 | 56 | 157 | 8.0 | 19.0 | 0.00 | 0.00 | 0.00 | 85 | 1010.7 |
| 20260904130923 | 56 | 157 | 10.0 | 20.0 | 0.00 | 0.00 | 0.00 | 85 | 1010.8 |
| 20260904130023 | 56 | 157 | 11.0 | 20.0 | 0.00 | 0.00 | 0.00 | 86 | 1010.9 |
| 20260904125402 | 56 | 157 | 10.0 | 22.0 | 0.00 | 0.00 | 0.00 | 86 | 1011.0 |
| 20260904124502 | 56 | 157 | 9.0 | 22.0 | 0.00 | 0.00 | 0.00 | 85 | 1011.1 |